Minneapolis Flying Cloud, MN

9:26 PM CST on December 05, 2019 (GMT -0600)
Flying Cloud

Weather History for KFCM - August, 2019

Change the Weather History Date:

Tuesday, August 13, 2019

  Actual Average Record
Temperature  
Mean Temperature 71 °F -  
Max Temperature 82 °F 78 °F 91 °F (2018)
Min Temperature 62 °F 58 °F 52 °F (2004)
Cooling Degree Days 6    
Growing Degree Days 21 (Base 50)    
Moisture  
Dew Point 63 °F    
Average Humidity 82    
Maximum Humidity 93    
Minimum Humidity 56    
Precipitation  
Precipitation 0.60 in - - ()
Sea Level Pressure  
Sea Level Pressure 29.89 in    
Wind  
Wind Speed 5 mph (NNW)    
Max Wind Speed 18 mph    
Max Gust Speed 39 mph    
Visibility 8 miles    
Events Fog , Rain , Thunderstorm    
Averages and records for this station are not official NWS values.
T = Trace of Precipitation, MM = Missing Value Source: NWS Daily Summary

Daily Weather History Graph

Daily Weather History Graph

Search for Another Location

Airport or City:

Astronomy

Aug. 13, 2019 Rise Set
Actual Time 6:13 AM CDT 8:23 PM CDT
Civil Twilight 5:41 AM CDT 8:55 PM CDT
Nautical Twilight 5:01 AM CDT 9:34 PM CDT
Astronomical Twilight 4:17 AM CDT 10:18 PM CDT
Moon 7:43 PM CDT (8/13) 4:10 AM CDT (8/13)
Length of Visible Light 15h 14m
Length of Day
14h 09m
Waxing Gibbous, 97% of the Moon is Illuminated
Aug 13
Waxing Gibbous
Aug 15
Full
Aug 23
Last Quarter
Aug 30
New
Sep 5
First Quarter

Hourly Weather History & Observations

Time (CDT) Temp. Heat Index Dew Point Humidity Pressure Visibility Wind Dir Wind Speed Gust Speed Precip Events Conditions
12:07 AM 71.1 °F - 68.0 °F 90% 29.84 in 10.0 mi NNW 3.5 mph - N/A   Mostly Cloudy
12:53 AM 72.0 °F - 66.9 °F 84% 29.83 in 10.0 mi North 5.8 mph - N/A   Mostly Cloudy
1:05 AM 71.1 °F - 66.9 °F 87% 29.84 in 10.0 mi North 4.6 mph - N/A   Scattered Clouds
1:34 AM 70.0 °F - 66.9 °F 90% 29.84 in 10.0 mi NNW 3.5 mph - N/A   Scattered Clouds
1:53 AM 70.0 °F - 66.0 °F 87% 29.83 in 10.0 mi North 4.6 mph - N/A   Partly Cloudy
2:53 AM 68.0 °F - 64.0 °F 87% 29.84 in 10.0 mi NNW 6.9 mph - N/A   Clear
3:53 AM 66.0 °F - 61.0 °F 84% 29.85 in 10.0 mi NNW 4.6 mph - N/A   Clear
4:53 AM 64.0 °F - 60.1 °F 87% 29.85 in 10.0 mi North 3.5 mph - N/A   Clear
5:53 AM 63.0 °F - 59.0 °F 87% 29.86 in 10.0 mi North 5.8 mph - N/A   Clear
6:53 AM 62.1 °F - 57.9 °F 86% 29.89 in 10.0 mi NW 4.6 mph - N/A   Partly Cloudy
7:07 AM 63.0 °F - 57.9 °F 84% 29.91 in 10.0 mi NW 4.6 mph - N/A   Mostly Cloudy
7:37 AM 64.0 °F - 57.9 °F 80% 29.91 in 10.0 mi North 4.6 mph - N/A   Scattered Clouds
7:53 AM 64.0 °F - 57.9 °F 80% 29.91 in 10.0 mi NNW 3.5 mph - N/A   Partly Cloudy
8:53 AM 66.0 °F - 59.0 °F 78% 29.91 in 10.0 mi Variable 3.5 mph - N/A   Mostly Cloudy
9:17 AM 66.0 °F - 59.0 °F 78% 29.93 in 10.0 mi NW 4.6 mph - N/A   Mostly Cloudy
9:53 AM 68.0 °F - 59.0 °F 73% 29.92 in 10.0 mi Calm Calm - N/A   Overcast
10:53 AM 72.0 °F - 61.0 °F 68% 29.91 in 10.0 mi Calm Calm - N/A   Overcast
11:39 AM 75.0 °F - 64.0 °F 69% 29.92 in 10.0 mi NNW 3.5 mph - N/A   Scattered Clouds
11:53 AM 73.9 °F - 63.0 °F 68% 29.91 in 10.0 mi Variable 3.5 mph - N/A   Scattered Clouds
12:53 PM 77.0 °F - 64.0 °F 64% 29.91 in 10.0 mi WNW 6.9 mph - N/A   Partly Cloudy
1:53 PM 79.0 °F - 64.0 °F 60% 29.89 in 10.0 mi Variable 3.5 mph - N/A   Clear
2:53 PM 80.1 °F 81.5 °F 63.0 °F 56% 29.87 in 10.0 mi North - - N/A   Partly Cloudy
3:53 PM 78.1 °F - 63.0 °F 60% 29.83 in 10.0 mi SE 4.6 mph - N/A   Overcast
4:19 PM 77.0 °F - 64.0 °F 64% 29.84 in 10.0 mi SSE 11.5 mph - N/A Thunderstorm Thunderstorm
4:27 PM 69.1 °F - 63.0 °F 81% 29.86 in 1.2 mi South 18.4 mph 39.1 mph 0.15 in Rain , Thunderstorm Heavy Thunderstorms and Rain
4:33 PM 66.9 °F - 64.0 °F 90% 29.86 in 0.2 mi South 9.2 mph 33.4 mph 0.43 in Fog , Rain , Thunderstorm Heavy Thunderstorms and Rain
4:36 PM 66.9 °F - 64.0 °F 90% 29.86 in 0.5 mi Variable 5.8 mph - 0.44 in Fog , Rain , Thunderstorm Heavy Thunderstorms and Rain
4:40 PM 66.9 °F - 64.9 °F 93% 29.88 in 1.0 mi SSW 6.9 mph - 0.45 in Rain , Thunderstorm Light Thunderstorms and Rain
4:51 PM 68.0 °F - 64.4 °F 88% 29.88 in 2.5 mi SSE 4.6 mph - 0.47 in Rain Light Rain
4:52 PM 68.0 °F - 64.0 °F 87% 29.87 in 3.0 mi SSE 5.8 mph - 0.47 in Rain Light Rain
5:53 PM 71.1 °F - 66.0 °F 84% 29.88 in 10.0 mi WSW 6.9 mph - 0.01 in Rain Light Rain
6:26 PM 73.0 °F - 66.0 °F 79% 29.88 in 10.0 mi Calm Calm - 0.00 in   Scattered Clouds
6:53 PM 70.0 °F - 64.0 °F 81% 29.88 in 1.2 mi North 4.6 mph - 0.09 in Rain Light Rain
6:57 PM 70.0 °F - 66.0 °F 87% 29.89 in 3.0 mi NNW 6.9 mph - 0.00 in Rain Light Rain
7:53 PM 68.0 °F - 63.0 °F 84% 29.89 in 10.0 mi West 4.6 mph - 0.03 in   Overcast
8:53 PM 68.0 °F - 63.0 °F 84% 29.90 in 10.0 mi WNW 9.2 mph - 0.00 in   Overcast
9:53 PM 68.0 °F - 64.0 °F 87% 29.91 in 10.0 mi Calm Calm - N/A   Overcast
10:44 PM 66.9 °F - 64.0 °F 90% 29.92 in 10.0 mi Calm Calm - N/A   Mostly Cloudy
10:53 PM 66.9 °F - 64.0 °F 90% 29.92 in 10.0 mi NNW 3.5 mph - N/A   Mostly Cloudy
11:27 PM 66.0 °F - 63.0 °F 90% 29.94 in 10.0 mi North 4.6 mph - N/A   Mostly Cloudy
11:35 PM 66.0 °F - 63.0 °F 90% 29.94 in 10.0 mi North 4.6 mph - N/A   Mostly Cloudy
11:40 PM 66.0 °F - 63.0 °F 90% 29.93 in 10.0 mi North 4.6 mph - N/A   Mostly Cloudy
11:53 PM 66.0 °F - 63.0 °F 90% 29.93 in 10.0 mi North 4.6 mph - N/A   Overcast